Regional Weather Roundup
Issued by NWS Upton, NY

Current Version | Previous Version | Text Only | Print | Product List | Glossary On
Versions: 1 2 3 4 5 6 7 8 9 10 11 12 13 14 15 16 17 18 19 20 21 22 23 24 25 26 27 28 29 30 31 32 33 34 35 36 37 38 39 40 41 42 43 44 45 46 47 48 49 50
000
ASUS41 KOKX 252108
RWROKX

REGIONAL WEATHER ROUNDUP
NATIONAL WEATHER SERVICE NEW YORK NY
500 PM EDT MON MAY 25 2015

NOTE: "FAIR" INDICATES FEW OR NO CLOUDS BELOW 12,000 FEET WITH NO
SIGNIFICANT WEATHER AND/OR OBSTRUCTIONS TO VISIBILITY.

NYZ071-072-176-178-NJZ106-104-252200-
NEW YORK CITY METRO AREA


CITY           SKY/WX    TMP DP  RH WIND       PRES   REMARKS
CENTRAL PARK   MOSUNNY   84  56  38 VRB6      30.18F
LAGUARDIA APRT PTSUNNY   82  56  40 S14       30.15F
KENNEDY INTL   PTSUNNY   72  57  59 S23G32    30.18F
NEWARK/LIBERTY PTSUNNY   88  54  31 SW20G28   30.14F
BRNX BOT. GARD   N/A     79  57  47 SW2       30.15F
TETERBORO      MOSUNNY   88  53  30 SW15G21   30.12F
$$

NYZ177-179-078>081-252200-
LONG ISLAND NEW YORK

CITY           SKY/WX    TMP DP  RH WIND       PRES   REMARKS
FARMINGDALE    SUNNY     74  58  57 S17G26    30.19F
ISLIP          PTSUNNY   72  58  61 S12G21    30.19F
SHIRLEY        SUNNY     70  58  65 S12       30.22F
WESTHAMPTON    MOSUNNY   68  57  68 SW13      30.24F
MONTAUK POINT    N/A     63  56  78 S8        30.24F
$$

NYZ052-065-067-252200-
HUDSON VALLEY

CITY           SKY/WX    TMP DP  RH WIND       PRES   REMARKS
WHITE PLAINS   SUNNY     79  57  46 S12G18    30.17F
NEWBURGH       MOSUNNY   86  57  37 SW17G29   30.14S
MONTGOMERY     NOT AVBL
POUGHKEEPSIE   MOSUNNY   87  57  35 S10       30.11S
ALBANY         PTSUNNY   87  57  35 S14G28    30.06F
$$

NJZ001-105-106-008-010-013-015-019>022-104-252200-
NEW JERSEY

CITY           SKY/WX    TMP DP  RH WIND       PRES   REMARKS
NEWARK/LIBERTY PTSUNNY   88  54  31 SW20G28   30.14F
TETERBORO      MOSUNNY   88  53  30 SW15G21   30.12F
CALDWELL       MOSUNNY   86  54  33 SW8       30.14F
MORRISTOWN     PTSUNNY   88  54  31 SW17G24   30.15F
SOMERVILLE     SUNNY     86  54  33 SW13      30.14S
SUSSEX         MOSUNNY   86  53  32 S9G18     30.15S
ANDOVER          N/A     84  52  33 SW14G25   30.16R
TRENTON        SUNNY     85  55  35 SW17G26   30.17S
MILLVILLE      SUNNY     80  58  46 VRB7G18   30.23S
ATLANTIC CITY  SUNNY     80  59  48 S16G23    30.23S
WRIGHTSTOWN    MOSUNNY   84  56  38 SW18G29   30.17R
TOMS RIVER     MOSUNNY  N/A N/A N/A SW14G23   30.20S
BELMAR         MOSUNNY   82  59  44 S12G21    30.19R
$$

PAZ047>061-062-071-252200-
EASTERN PENNSYLVANIA

CITY           SKY/WX    TMP DP  RH WIND       PRES   REMARKS
PHILADELPHIA   PTSUNNY   86  54  33 SW21      30.20S
ALLENTOWN      SUNNY     86  55  34 S20G25    30.16S
SCRANTON       SUNNY     87  51  28 SW15      30.13S
$$

CTZ002-004>006-009-010-012-RIZ004-006-007-MAZ004-011-015-252200-
SOUTHERN NEW ENGLAND
 IN CT

CITY           SKY/WX    TMP DP  RH WIND       PRES   REMARKS
BRADLEY INTL   MOSUNNY   84  56  38 S18G26    30.13S
HARTFORD       MOSUNNY   82  56  40 S15G29    30.15S
DANBURY        MOSUNNY   79  57  46 S14G29    30.17F
WTRBRY/OXFORD  MOSUNNY   79  61  53 S14G24    30.20S
BRIDGEPORT     SUNNY     77  58  51 S15       30.18F
MERIDEN        MOSUNNY   81  56  42 S16G26    30.17F
NEW HAVEN      MOSUNNY   72  58  61 S12       30.19F
CHESTER        FAIR      75  57  53 S9        30.21F
GROTON         MOSUNNY   63  55  75 S10       30.21F
WILLIMANTIC    PTSUNNY   81  56  42 S14G21    30.19S

 IN RI

CITY           SKY/WX    TMP DP  RH WIND       PRES   REMARKS
PROVIDENCE     CLOUDY    73  57  57 S14       30.21S
BLOCK ISLAND   CLOUDY    61  54  77 S16G22    30.24F
WESTERLY       PTSUNNY   64  55  72 S10       30.23F

 IN MA

CITY           SKY/WX    TMP DP  RH WIND       PRES   REMARKS
BOSTON         CLOUDY    78  55  44 S15       30.16F
WORCESTER      PTSUNNY   77  54  44 S18G26    30.19S
WESTFIELD      MOSUNNY   85  57  38 S17       30.11F
PROVINCETOWN   CLOUDY    64  54  68 S13G20    30.22F
NANTUCKET      PTSUNNY   61  54  77 S9        30.27F
$$

ANZ330-335-338-340-345-350-353-355-252200-
COASTAL MARINE OBSERVATIONS


STATION/POSITION TIME  SKY/WX   TEMP    WIND        PRES    VSBY  WAVE
                                AIR SEA DIR/SP/G                  HT/PER
                 (UTC)          (F)     (DEG/KT/KT) (MB)    (MI)  (FT/S)
NY HARB ENTRANCE 2050            62 57  190/ 19/ 23 1021.6          3/ 5
4S FIRE IS       2003               55                N/A           2/ 5
20S FIRE ISLAND  2050            60 56  200/ 17/ 19 1022.8          3/ 5
GREAT SOUTH BAY  2000            62 65  210/ 14/ 17   N/A
23SW MTP         2050            58 54  210/ 14/ 16 1023.7          2/ 4
HUDSON CANYON    NOT AVBL
KINGS POINT      2000            73 59  200/ 13/ 16 1021.2
CENTRAL LI SOUND 2030            63 55  180/ 10/ 12   N/A
EASTERN LI SOUND 2000            57     180/  8/ 12   N/A
ROBBINS REEF     2000            69     180/ 13/ 16 1020.2
$$


>>>>>>>>>>>>>>>>>>>>>>>>>>>> KEY <<<<<<<<<<<<<<<<<<<<<<<<<<<
>                                                          <
>     SKY/WX - SKY CONDITION/PRESENT WEATHER               <
>     TMP    - TEMPERATURE IN FAHRENHEIT                   <
>     DP     - DEWPOINT IN FAHRENHEIT                      <
>     RH     - RELATIVE HUMIDITY IN PERCENT                <
>     WIND   - DIRECTION AND SPEED IN MPH                  <
>     PRES   - MEAN SEA LEVEL PRESSURE IN INCHES OF HG     <
>     WCI    - WIND CHILL INDEX                            <
>     VSB    - VISIBILITY IN MILES                         <
>     HX     - HEAT INDEX                                  <
>     TC     - TEMPERATURE IN CELSIUS                      <
>     VRB    - VARIABLE WIND DIRECTION                     <
>                                                          <
>>>>>>>>>>>>>>>>>>>>>>>>>>>> KEY <<<<<<<<<<<<<<<<<<<<<<<<<<<




USA.gov is the U.S. government's official web portal to all federal, state and local government web resources and services.